www.pogodaiklimat.ru
ПОГОДА в Стейт Колледж
Время
и дата
15:53 24.05
16:53 24.05
17:53 24.05
18:53 24.05
19:53 24.05
20:53 24.05
23:10 24.05
23:31 24.05
23:54 24.05
00:12 25.05
00:42 25.05
01:10 25.05
01:41 25.05
02:01 25.05
02:22 25.05
04:02 25.05
04:36 25.05
04:53 25.05
05:53 25.05
06:53 25.05
07:53 25.05
08:53 25.05
09:53 25.05
10:53 25.05
11:53 25.05
12:53 25.05
13:53 25.05
14:00 25.05
14:53 25.05
15:53 25.05
16:53 25.05
16:59 25.05
17:53 25.05
18:53 25.05
19:53 25.05
20:53 25.05
21:21 25.05
21:55 25.05
22:22 25.05
22:42 25.05
23:02 25.05
23:21 25.05
23:42 25.05
00:02 26.05
01:42 26.05
02:34 26.05
03:02 26.05
03:22 26.05
Ветер
(напр.,м/с)
Видим. Явления Облачность Т
(С)
Тd
(С)
f
(%)
Тe
(С)
Тes
(С)
Комфортность P
(гПа)
Po
(гПа)
Тmin
(С)
Tmax
(С)
R
(мм)
R24
(мм)
S
(см)
З 4
{7}
16 км 5/0 2550 m
[Ac]
+27.0 +9.0 32 +27 +33 жарко 968.4
З 4 16 км 5/0 2550 m
[Ac]
+27.0 +9.0 32 +27 +31 жарко 968.1
З 3 16 км 2/0 2550 m
[Ac]
+26.0 +9.0 34 +26 +30 жарко 968.1
штиль 0 16 км 5/0 2550 m
[Ac]
+25.0 +9.0 36 +26 +27 жарко 968.4
З 2 16 км ясно +24.0 +9.0 38 +25 +25 комфорт 968.4
СЗ 2 16 км 5/0 2400 m
[Ac]
+22.0 +10.0 46 +24 +24 комфорт 969.4
штиль 0 16 км 5/0 3000 m
[Ac]
+18.0 +11.0 64 +18 +18 969.7
СВ 2 16 км 5/0 3000 m
[Ac]
+17.0 +11.0 68 +17 +17 970.0
штиль 0 16 км ясно +16.0 +11.0 72 +16 +16 970.0
штиль 0 16 км ясно +16.0 +11.0 72 +16 +16 970.0
штиль 0 16 км ясно +16.0 +11.0 72 +16 +16 970.0
штиль 0 16 км ясно +17.0 +10.0 63 +17 +17 969.4
штиль 0 16 км ясно +14.0 +12.0 88 +14 +14 969.4
штиль 0 16 км ясно +15.0 +11.0 77 +15 +15 969.0
штиль 0 16 км ясно +14.0 +11.0 82 +14 +14 969.0
штиль 0 16 км ясно +13.0 +12.0 94 +12 +12 969.0
штиль 0 16 км ясно +13.0 +12.0 94 +12 +12 969.0
штиль 0 16 км ясно +13.0 +12.0 94 +12 +12 969.4
штиль 0 16 км ясно +13.0 +12.0 94 +12 +12 969.4
штиль 0 16 км ясно +14.0 +12.0 88 +14 +15 970.3
штиль 0 16 км ясно +18.0 +12.0 68 +18 +23 970.3
Ю 2 16 км ясно +21.0 +12.0 56 +24 +31 комфорт 970.0
ЮЗ 3 16 км ясно +25.0 +14.0 50 +27 +37 жарко 969.7
Ю 4 16 км 5/0 2850 m
[Ac]
+26.0 +14.0 48 +28 +35 жарко 969.4
Ю 4 16 км 5/5 1800 м +26.0 +15.0 51 +29 +35 душно 968.4
ЮЗ 4 16 км 5/0 2100 m
[Ac]
+27.0 +15.0 48 +30 +38 душно 968.1
З 4
{7}
8 км гроза с сильным дождем 8/8 600 m
[Cb]
+24.0 +17.0 65 +28 +30 душно 968.4
СЗ 3 16 км гроза 10/8 600 m
[Ac Cb]
+21.0 +19.0 88 +26 +27 душно 968.1
ЮЗ 2 16 км 5/0 2400 m
[Ac]
+23.0 +17.0 69 +28 +39 душно 967.4
штиль 0 16 км ясно +24.0 +17.0 65 +28 +45 душно 967.4
З 4 16 км слабый дождь 5/5 330 m
[Ns]
+22.0 +19.0 83 +27 +30 душно 967.4
З 4 16 км гроза со слабым дождем 8/8 270 m
[Cb]
+22.0 +19.0 83 +27 +28 душно 967.7
штиль 0 6 км гроза со слабым дождем 10/10 780 m
[Cb]
+19.0 +18.0 94 +21 +21 комфорт 968.7
штиль 0 16 км 2/2 450 м +19.0 +19.0 100 +21 +22 комфорт 968.1
штиль 0 16 км 2/2 150 м +18.0 +18.0 100 +18 +18 969.4
штиль 0 11 км ясно +17.0 +17.0 100 +17 +17 969.7
штиль 0 16 км ясно +17.0 +17.0 100 +17 +17 970.0
штиль 0 11 км 5/5 1500 м +16.0 +16.0 100 +16 +16 970.0
штиль 0 6 км дымка ясно +16.0 +16.0 100 +16 +16 970.0
штиль 0 6 км дымка ясно +16.0 +16.0 100 +16 +16 970.0
штиль 0 5 км дымка ясно +16.0 +16.0 100 +16 +16 970.0
штиль 0 400 м туман 10/10 30 м +16.0 +16.0 100 +16 +16 970.0
штиль 0 400 м туман 10/10 30 м +16.0 +16.0 100 +16 +16 970.0
штиль 0 400 м туман 10/10 30 м +16.0 +16.0 100 +16 +16 970.0
штиль 0 400 м туман 8/8 30 м +15.0 +15.0 100 +15 +15 970.0
штиль 0 <100 м туман 10/10 30 м +15.0 +15.0 100 +15 +15 970.3
штиль 0 <100 м туман 10/10 30 м +15.0 +15.0 100 +15 +15 970.3
штиль 0 <100 м туман 10/10 30 м +15.0 +15.0 100 +15 +15 970.3
Местоположение метеостанции University Park Airport: широта 40.8534 долгота -77.8401 высота над уровнем моря 362 м.
В архиве по умолчанию представлена погода в Стейт Колледж за последние 1-2 суток. Обновление информации о фактической погоде в базе происходит ежечасно! Архивные данные за месяц целиком и за предыдущие месяцы Вы можете получить, выбрав интересующий диапазон дат из раскрывающегося списка и нажав кнопку "Ввод!".
Внимание! Архив погоды МЕТАР в базе сайта по станциям, не включенным в климатический монитор, хранится не более 60 дней. Нет смысла пытаться выбрать более раннюю дату.
*Определитесь, кто Вы:
Внимание! Время в таблицах - местное (без учета летнего времени). Для получения всемирного времени необходимо вычесть поправку, которая равна -5 ч.
Смотрите также архив погоды в соседних городах и на ближайших метеорологических станциях:
Партнеры нашего сайта:      
Пояснения к столбцам:
  • Ветер - указаны скорость ветра в м/с - средняя за 10 мин, порывы в срок и между сроками (в фигурных скобках) и направление, откуда дует ветер: С - северный,
  • СВ - северо-восточный, В - восточный, ЮВ - юго-восточный, Ю - южный, ЮЗ - юго-западный, З - западный, СЗ - северо-западный.
  • Видимость - горизонтальная дальность видимости в метрах или километрах. При видимости от 1 до 10 км при отсутствии осадков обычно наблюдается дымка, при ухудшении видимости до 1 км и менее - туман. В сухую погоду видимость может ухудшаться дымом, пылью или мглою.
  • Явления - указаны атмосферные явления, наблюдавшиеся в срок или в последний час перед сроком; фигурными скобками обозначены явления, наблюдавшиеся между сроками (за 1-3 часа до срока); квадратными скобками обозначены град или гололедные отложения с указанием их диаметра в мм.
  • Облачность - указаны через наклонную черту общая и нижняя облачность в баллах и высота нижней границы облаков в метрах; квадратными скобками обозначены формы облаков: Ci - перистые, Cs - перисто-слоистые, Cc - перисто-кучевые, Ac - высококучевые, As - высокослоистые, Sc - слоисто-кучевые, Ns - слоисто-дождевые, Cu - кучевые, Cb - кучево-дождевые. Подробнее классификацию облаков см. в Атласе облаков (PDF).
  • T - Температура воздуха - температура, измеренная на высоте 2 м над землей.
  • Td - Температура точки росы - температура, при понижении до которой содержащийся в воздухе водяной пар достигнет насыщения.
  • f - Относительная влажность воздуха - влажноcть воздуха, измеренная на высоте 2 м над землей.
  • Te - Эффективная температура - температура, которую ощущает одетый по сезону человек в тени. Характеристика душности погоды. При расчете учитывается влияние влажности воздуха и скорости ветра на теплоощущения человека.
  • Tes - Эффективная температура на солнце - температура, которую ощущает человек, с поправкой на солнечный нагрев. Характеристика знойности погоды. Зависит от высоты солнца над горизонтом, облачности и скорости ветра. Ночью, в пасмурную погоду, а также при ветре 12 м/с и более поправка равна нулю.
  • P - Атмосферное давление - приведенное к уровню моря атмосферное давление.
  • Po - Атмосферное давление - измеренное на уровне метеостанции атмосферное давление.
  • Tmin - Минимальная температура - минимум температуры воздуха на высоте 2 м над землей.
  • Tmax - Максимальная температура - максимум температуры воздуха на высоте 2 м над землей.
  • R - Количество осадков - Количество выпавших осадков за период времени, мм. При наведении курсора мыши на число - период времени, за который выпало указанное количество осадков.
  • R24 - Количество осадков - Количество выпавших осадков за 24 часа, мм.
  • S - Снежный покров - Высота снежного покрова, см. При наведении курсора мыши на число - состояние снежного покрова и степень покрытия местности в баллах.